Starlink 5190

operational
NORAD ID: 54092 Int'l Des: 2022-136 Owner: SPXS Country: US Constellation: starlink
LEOCIRCULAR

About Starlink 5190

Description loading...

Live Position

Loading 3D Globe...

Upcoming Passes

Altitude History

Altitude vs Time

uPlot chart will show altitude changes over time

Two-Line Element Set

1 54092U 22136AT 25261.08100593 .00019487 00000-0 37052-3 0 9995
2 54092 53.1854 288.3116 0003810 105.5612 254.5818 15.48282142162345
Epoch: Sep 18, 2025 • Age: 23 hours

Current Status

Altitude 423.3 km
Velocity 7.66 km/s
Sub-Earth Point 0.52°N, 91.9°W
Launch Date Oct 20, 2022
Age 2.9 years
Type internet

Technical Details

Classification Payload
Mass 305.00 kg
Dry Mass 290.00 kg
Total Mass 305.00 kg
Length 0.20 m
Diameter 2.80 m
Span 9.00 m
Shape Box + pan
Manufacturer SPXS
Bus Type Starlink
Phase Status In Orbit
Owner/State SPXS/US

Large Constellations

Loading constellations...